GFSNE_sfc_30mbdewp_045.txt.gz
Dewpoint
37 37 35 33 33 32 32 31 29 25 20 21 24 28 26 22 19 19 19 15 19 21 22 23 24 24 24 24 24 24 24 25 26 27 28 27 31 30
35 35 34 32 33 34 33 32 31 30 23 20 21 23 22 17 17 19 17 17 16 20 22 23 23 24 24 23 23 23 24 24 24 24 25 27 29 28
34 34 33 33 32 32 32 31 30 29 27 22 21 20 19 18 18 17 14 13 14 17 20 21 21 22 21 21 22 23 23 23 23 24 24 25 26 28
33 33 33 32 33 32 32 31 29 27 25 20 18 17 18 18 18 16 11 12 16 15 18 21 21 21 22 23 24 24 25 25 24 24 24 26 25 24
33 33 32 32 31 31 31 29 26 24 22 20 17 17 18 18 16 12 11 15 13 14 15 16 19 22 23 23 23 24 25 26 26 26 25 25 25 25
32 32 32 31 30 30 29 27 24 22 19 18 16 16 17 16 15 9 10 11 12 14 15 18 20 20 21 21 23 24 25 26 27 27 26 27 28 27
32 33 32 32 32 30 26 25 22 19 18 17 16 16 15 14 10 8 12 11 13 14 15 15 15 16 17 18 20 21 23 26 27 27 28 28 29 29
30 31 31 31 30 28 27 24 20 20 20 19 17 16 15 15 11 12 13 13 11 14 14 14 14 15 17 19 19 22 23 25 26 27 27 29 29 30
31 30 30 27 26 25 26 28 27 24 21 20 20 18 18 14 10 13 13 13 13 13 14 14 14 15 18 17 18 21 25 27 28 28 29 30 30 30
30 30 29 28 25 24 23 29 25 24 23 21 19 18 18 12 14 16 16 16 14 13 13 13 14 17 18 18 19 23 26 25 25 28 29 28 29 30
28 28 27 26 25 25 31 28 23 22 21 21 20 21 20 19 21 18 16 14 14 12 12 16 14 14 16 18 21 23 22 24 25 26 26 26 27 28
29 27 26 26 25 27 30 28 25 22 20 18 19 19 18 18 20 18 16 15 14 13 11 14 13 14 14 15 20 20 22 23 25 26 27 27 27 27
29 28 28 27 27 27 28 30 27 25 21 20 19 15 13 15 17 17 16 16 15 13 12 15 14 14 13 13 15 17 20 22 24 26 27 28 29 29
30 29 29 29 28 28 29 31 28 26 23 22 21 19 17 18 18 17 17 17 17 15 15 15 15 15 16 16 14 16 18 21 26 26 27 28 29 30
31 31 30 29 29 29 29 30 30 27 26 24 22 20 20 19 19 19 18 18 17 16 15 16 16 15 15 16 16 16 17 20 26 26 27 28 29 31
30 32 31 30 30 30 29 30 30 29 27 25 23 21 21 21 20 19 19 18 16 15 16 17 17 16 14 13 13 15 18 23 25 25 27 28 31 32
30 30 30 29 28 28 28 28 28 28 26 26 24 23 21 20 20 20 19 18 15 13 13 14 15 15 16 17 18 19 23 22 22 24 26 28 30 30
26 26 27 29 27 27 26 25 25 26 26 26 25 23 22 21 20 19 19 18 15 14 13 14 14 13 16 18 20 21 22 22 23 25 27 28 28 30
24 24 27 29 27 27 25 24 24 25 26 25 25 24 23 21 21 19 19 17 16 14 13 14 14 12 15 15 18 20 22 22 25 25 26 27 27 28
22 25 27 29 28 27 26 25 25 25 25 24 24 24 23 21 20 19 18 18 16 14 12 12 12 10 14 16 17 19 22 24 23 23 24 25 27 27
16 23 26 29 29 28 27 27 25 25 25 24 24 23 22 20 21 19 18 17 16 14 11 12 12 13 14 18 19 21 25 26 26 24 23 24 23 23
13 14 15 27 29 28 28 27 26 25 24 23 23 23 21 21 21 20 19 19 17 15 13 13 12 11 14 16 17 20 22 24 26 25 25 26 24 21
10 11 14 15 19 28 28 27 25 24 24 23 23 22 21 20 21 21 20 19 17 15 13 12 11 10 11 12 15 18 20 20 22 21 23 24 26 26

GFSNE_sfc_30mbdewp_048.txt.gz
Dewpoint
36 35 35 31 30 29 28 27 27 27 23 19 18 22 24 24 22 20 20 20 21 20 20 22 23 24 24 25 25 25 25 25 26 27 28 28 28 29
38 38 34 31 30 30 29 29 27 25 23 21 19 20 22 21 20 18 19 19 18 17 17 21 23 23 23 23 23 23 23 23 23 24 24 24 26 26
38 36 33 32 29 29 30 29 27 26 23 21 20 19 21 22 20 19 18 16 11 14 17 18 20 21 23 23 22 23 23 24 24 24 24 24 24 25
37 34 32 29 29 31 30 29 28 27 24 21 20 19 19 19 19 19 17 12 11 13 16 17 19 19 21 22 24 24 24 25 25 26 26 25 25 25
36 34 31 30 29 30 30 30 28 26 24 22 20 19 18 18 17 17 15 11 11 11 14 17 15 18 21 22 23 23 24 24 25 26 27 27 26 26
34 33 32 32 30 30 29 31 29 26 24 22 19 18 17 17 16 14 11 7 9 9 12 16 18 18 21 21 20 20 22 24 25 26 27 28 28 27
36 35 32 32 33 32 28 27 28 26 24 21 18 18 16 16 13 13 11 9 11 12 12 13 13 14 14 17 18 19 22 23 24 26 26 27 28 29
31 29 29 30 33 33 32 31 29 27 25 23 22 21 18 16 14 14 9 9 10 12 12 13 13 13 14 15 19 20 20 22 25 27 28 27 28 29
29 28 26 25 29 31 32 30 28 25 22 24 25 23 19 17 16 14 10 11 12 13 12 12 14 14 15 14 20 20 21 24 27 25 26 28 29 31
28 27 26 26 27 29 29 27 26 26 27 27 24 21 19 18 18 14 13 15 15 14 12 12 13 14 16 16 18 21 22 25 24 25 26 27 28 30
27 26 26 26 26 29 28 27 25 26 29 25 25 24 22 21 20 16 16 15 15 13 13 12 13 13 14 15 17 21 22 22 24 24 25 26 28 29
28 26 27 27 27 28 27 27 27 26 26 26 22 22 23 22 23 20 17 15 15 14 13 12 12 12 13 15 16 16 18 21 23 25 26 27 28 27
28 27 27 28 28 28 28 27 29 28 28 31 28 20 19 18 15 18 17 16 15 14 14 13 13 13 13 13 14 15 19 21 23 25 27 28 28 29
30 31 31 31 30 29 29 29 29 30 32 31 28 25 20 19 16 15 16 16 16 16 16 15 15 14 14 13 13 13 17 21 23 26 27 27 28 29
26 30 30 31 33 32 32 29 30 31 30 29 28 26 24 23 21 19 19 17 17 18 17 16 16 15 14 14 12 12 14 18 22 26 26 28 28 31
24 26 26 28 30 31 33 32 31 32 31 29 28 27 27 27 22 21 20 18 19 18 17 17 17 17 17 14 13 15 18 21 24 25 27 28 31 33
22 24 24 23 24 25 28 31 32 31 30 30 30 29 29 25 24 22 22 20 18 17 15 14 15 16 16 15 17 19 21 22 24 27 27 27 31 31
23 21 22 24 23 22 24 29 30 29 28 29 29 28 28 26 24 23 21 21 17 16 15 14 14 15 14 17 22 20 22 22 23 25 28 27 27 31
18 19 22 25 26 23 24 27 29 29 27 27 27 28 28 27 26 23 23 20 18 16 15 13 14 14 12 14 21 22 21 21 22 23 24 26 27 29
14 14 17 19 20 22 27 28 29 29 28 28 27 27 28 26 26 23 20 21 18 16 15 12 12 12 12 15 18 20 24 24 23 22 22 24 26 29
12 13 14 16 17 19 26 31 30 29 28 27 26 27 27 27 25 23 21 20 18 16 14 12 12 15 12 16 19 23 26 26 25 23 23 22 22 24
11 11 12 13 16 18 19 25 30 29 27 27 28 27 28 27 25 22 22 22 18 17 15 13 13 12 11 13 13 19 21 24 27 25 25 25 23 20
10 10 11 12 13 14 15 17 20 29 28 27 27 27 27 26 24 24 22 21 20 17 15 13 12 11 11 10 12 14 21 19 21 22 27 24 25 25

GFSNE_sfc_30mbdewp_054.txt.gz
Dewpoint
43 41 41 41 42 42 40 37 33 30 30 30 30 29 27 29 30 30 28 29 29 28 27 27 26 23 21 21 23 24 25 26 26 26 25 25 25 24
43 41 41 42 42 43 40 36 34 32 30 31 29 28 28 23 25 27 26 26 26 26 27 28 28 24 20 22 22 21 24 25 25 25 24 24 25 27
41 40 41 42 41 41 38 37 34 33 31 31 29 27 28 29 26 28 27 26 25 25 25 26 27 25 22 23 22 22 23 24 25 24 24 24 25 26
40 40 41 41 40 40 38 37 35 34 32 31 31 29 29 29 26 25 25 23 22 21 21 24 25 24 26 25 23 24 24 25 25 25 24 24 24 23
40 41 40 40 40 40 39 38 36 34 34 32 31 31 31 30 25 26 24 25 24 22 22 22 25 27 26 26 25 25 25 25 26 26 25 24 25 25
41 41 40 41 39 39 39 38 36 35 35 33 32 31 30 28 26 24 22 23 22 20 16 14 15 19 24 28 27 27 27 27 26 26 26 27 27 26
41 41 41 40 40 39 38 36 34 32 32 32 31 31 30 28 25 24 23 23 22 21 17 16 17 19 18 18 21 22 22 26 29 26 24 25 27 28
39 39 40 40 40 39 38 37 31 30 30 31 31 30 30 29 28 26 26 24 23 22 15 15 19 17 17 19 19 23 23 23 23 23 23 24 27 28
38 37 33 30 30 30 30 30 30 31 32 31 30 30 30 30 30 28 27 27 25 21 16 16 18 17 20 18 19 20 21 25 25 26 25 27 28 27
31 31 30 30 31 31 31 29 29 30 32 32 32 31 31 30 28 27 28 26 21 19 17 15 19 19 21 20 21 19 21 22 22 25 27 27 27 27
31 31 31 30 31 31 31 31 31 29 29 29 31 32 31 29 28 26 23 21 20 20 20 18 18 18 19 19 17 19 20 23 24 24 24 25 26 27
27 27 27 28 27 27 27 27 27 30 33 33 32 30 32 28 26 24 24 23 26 22 21 18 18 19 16 17 19 19 20 22 22 23 24 25 27 28
22 22 22 23 23 23 23 22 20 23 27 29 31 32 32 31 28 26 24 24 24 22 20 19 18 18 17 18 17 18 20 21 22 23 26 27 28 29
20 21 22 21 22 23 24 24 25 27 28 26 27 27 31 32 33 31 27 25 24 23 22 21 19 19 19 17 17 18 19 21 22 23 25 29 30 29
20 20 19 20 22 24 25 25 25 24 22 24 25 25 26 31 32 33 32 29 25 23 22 22 21 20 19 18 18 18 18 20 22 25 26 28 28 31
19 19 20 21 22 21 22 22 23 25 26 28 27 28 29 31 32 32 30 29 28 28 24 22 20 21 21 19 18 18 20 18 21 25 27 26 29 32
18 19 19 19 18 18 17 18 19 20 21 21 23 29 28 31 31 32 30 29 26 25 23 23 23 23 23 20 19 20 20 21 27 24 24 25 27 32
18 17 16 16 16 15 15 15 16 18 17 19 20 24 29 30 30 30 30 28 26 24 23 22 21 21 21 22 22 19 21 25 23 22 24 25 24 25
14 14 14 14 14 14 14 14 14 16 16 17 18 23 29 30 30 29 28 27 26 25 23 21 21 18 17 15 18 24 23 23 21 23 24 24 22 23
14 12 12 13 13 13 12 13 14 15 15 15 17 25 30 30 29 28 28 26 26 26 23 21 19 19 17 15 17 19 24 22 22 24 21 21 23 28
13 12 11 11 12 12 12 13 13 13 13 15 18 21 30 29 28 28 28 27 27 26 23 19 19 18 17 16 14 14 19 26 27 25 24 22 20 22
12 12 11 11 11 11 11 11 11 11 12 13 15 15 17 28 27 26 27 27 26 26 25 21 16 15 14 14 14 14 17 26 29 29 27 24 21 18
11 12 12 10 10 10 9 8 10 9 11 11 13 12 14 16 26 28 27 27 26 25 25 20 17 15 14 14 13 12 12 16 19 19 24 27 25 24

GFSNE_sfc_30mbdewp_057.txt.gz
Dewpoint
43 43 43 44 43 42 43 42 39 35 33 32 31 31 31 32 34 37 33 35 33 32 33 31 29 29 27 25 23 22 22 22 24 26 26 26 26 25
43 43 43 43 43 43 43 43 41 37 34 32 31 31 29 28 30 34 31 33 34 33 31 30 31 30 28 25 22 23 21 21 23 25 26 26 25 25
43 42 42 42 42 42 42 42 39 36 34 32 32 31 28 27 28 33 31 31 30 32 30 31 32 31 30 27 24 24 23 22 24 24 26 25 24 24
41 41 40 42 41 41 41 40 38 37 34 33 33 32 31 31 29 28 28 27 27 27 30 30 28 27 26 27 27 27 26 24 26 25 26 27 26 24
40 40 41 41 40 40 40 40 39 38 36 35 34 33 33 32 30 29 27 27 26 26 27 27 26 30 29 29 28 29 28 27 28 28 27 27 27 26
41 41 41 40 40 40 40 39 38 38 37 36 35 35 33 33 32 30 28 27 26 24 23 21 22 21 26 29 31 31 30 29 30 30 30 29 29 28
41 41 41 41 41 40 39 38 38 37 35 34 32 30 30 30 30 30 28 27 24 24 21 18 16 16 19 20 22 25 27 26 23 25 27 28 28 27
40 39 39 39 39 39 39 39 39 37 35 32 31 29 29 30 30 29 28 27 26 26 22 18 17 18 19 18 19 20 25 23 23 23 24 25 26 26
38 38 38 34 33 31 31 31 31 31 33 32 30 29 30 30 30 30 29 28 27 27 21 18 19 16 18 19 21 24 25 23 25 26 25 26 27 27
32 31 30 28 30 28 27 26 27 29 30 31 31 31 31 32 32 31 31 30 28 25 20 17 18 16 19 21 24 24 21 22 25 23 24 25 26 26
26 26 26 26 26 24 21 19 18 17 17 20 25 29 31 32 33 32 30 27 26 22 21 18 18 18 19 20 20 20 21 22 23 24 22 25 24 25
22 23 22 23 24 23 22 23 23 22 22 23 24 26 27 28 31 32 31 27 26 24 23 21 22 20 17 19 18 19 18 18 21 24 24 25 24 26
20 20 21 22 20 21 24 24 24 25 26 25 25 25 24 26 27 31 31 31 29 27 25 23 19 19 18 17 18 18 18 19 19 20 23 24 27 29
20 21 21 19 21 23 24 23 22 23 26 26 25 24 24 24 26 29 30 30 31 31 27 23 20 19 18 18 17 18 18 19 20 21 22 26 28 29
20 18 19 20 22 23 20 17 20 19 19 20 22 21 22 27 27 29 32 31 29 28 27 23 22 21 20 18 17 18 18 18 20 22 22 25 26 27
18 18 19 20 21 19 18 17 17 17 17 18 17 18 20 20 26 29 29 30 28 26 25 24 23 22 20 20 19 19 19 18 19 21 27 24 24 28
18 18 18 18 16 16 15 15 15 15 15 16 15 15 17 18 19 28 30 30 27 26 26 26 24 22 22 20 19 20 20 20 21 26 24 21 24 26
18 16 13 13 13 14 14 13 12 13 13 14 14 14 15 16 18 29 30 28 27 26 25 25 23 23 23 23 23 20 20 20 23 25 21 22 22 22
13 13 11 11 12 13 12 12 11 12 13 12 12 13 15 15 20 28 28 27 26 25 25 24 23 21 19 19 19 25 21 23 22 20 21 21 20 21
13 13 11 11 12 11 11 11 11 11 11 10 11 12 14 14 15 27 27 26 25 25 25 24 23 21 20 17 16 19 25 20 19 20 21 22 22 23
13 12 12 12 11 11 11 10 10 9 10 8 10 11 12 11 12 22 27 26 25 25 24 24 23 22 21 17 14 12 14 22 23 22 23 22 21 20
10 11 13 11 9 9 9 9 7 6 8 7 9 9 10 10 11 13 20 26 26 26 25 24 22 18 15 14 13 11 14 22 26 28 27 25 22 18
10 11 9 8 8 8 9 6 5 6 7 7 7 6 9 9 9 11 15 20 26 26 26 25 23 18 16 15 14 14 13 12 16 19 20 26 28 25

GFSNE_sfc_30mbdewp_063.txt.gz
Dewpoint
50 50 49 47 46 45 44 43 42 39 39 39 37 36 35 34 34 37 40 39 42 40 40 40 41 40 39 37 35 33 32 31 29 26 25 25 26 27
48 48 46 45 45 44 44 43 43 41 38 39 36 34 34 33 33 34 36 40 40 41 40 39 39 39 39 38 37 35 32 31 29 26 25 25 25 25
46 45 44 44 44 44 43 43 42 42 39 40 39 36 34 33 33 32 34 35 37 38 39 39 38 38 37 37 37 36 35 32 29 26 24 24 24 24
45 44 44 44 43 43 42 41 41 41 40 38 38 36 34 34 34 34 35 34 34 34 35 37 38 38 37 36 36 36 34 34 32 29 25 23 23 23
44 44 43 43 42 41 41 40 40 40 39 38 38 38 37 37 36 36 34 34 34 34 34 34 35 37 38 37 35 34 34 35 33 31 31 30 26 26
43 42 42 42 41 41 40 39 39 37 36 35 35 34 34 34 34 33 33 33 32 32 32 32 32 33 36 37 36 35 36 34 31 33 32 32 32 32
41 41 41 41 41 40 40 38 37 36 35 34 33 32 31 31 30 31 30 30 30 31 30 30 31 31 32 34 36 35 34 34 33 31 32 31 31 30
40 41 37 34 32 30 29 29 29 27 25 26 25 21 24 27 29 28 27 25 22 27 29 28 28 27 26 30 32 32 33 33 32 32 30 31 27 27
38 35 30 28 27 24 21 18 17 19 23 21 20 21 22 21 23 24 24 24 23 22 24 24 29 28 29 29 31 32 29 29 28 27 29 28 27 29
30 28 27 25 23 22 19 17 21 22 23 23 21 22 22 23 25 25 25 25 25 23 26 23 25 28 30 30 30 30 29 26 26 29 28 27 28 27
24 22 20 22 23 22 21 21 22 23 24 22 22 23 25 27 26 26 23 23 22 22 22 24 25 27 25 25 24 27 27 27 29 27 25 25 27 26
19 20 22 21 21 23 24 23 21 21 19 19 19 21 21 25 24 25 24 21 21 21 22 24 23 26 24 25 25 22 26 28 25 22 22 23 22 24
16 17 19 20 22 24 23 20 19 19 17 17 18 18 19 18 18 18 20 21 19 19 22 26 26 26 26 24 24 24 23 20 20 19 20 22 22 24
18 19 19 21 23 22 19 17 17 18 17 16 15 15 15 15 15 16 17 19 20 20 22 26 27 27 25 22 19 19 19 19 19 18 19 20 24 26
20 19 20 21 20 18 16 16 16 16 15 14 13 12 13 14 14 15 15 16 17 18 20 27 30 28 26 23 18 18 17 18 20 19 19 20 20 25
19 19 20 19 17 16 16 15 14 14 13 13 12 12 12 11 12 13 14 13 14 15 19 29 31 30 25 24 18 18 18 17 20 20 20 20 24 23
19 19 15 14 13 13 13 13 12 11 11 11 11 10 10 9 10 11 12 12 13 14 18 25 30 29 28 23 20 20 20 20 20 20 21 21 23 21
18 15 12 10 11 12 12 11 10 9 8 8 8 9 7 8 8 8 10 11 12 12 18 26 26 25 25 25 23 21 21 20 20 21 22 22 21 20
14 12 10 11 12 11 10 9 8 9 8 6 6 8 6 7 6 6 8 9 9 11 13 26 26 24 21 19 22 25 21 20 21 20 22 22 20 19
15 13 11 12 10 9 8 7 7 8 5 4 5 6 5 6 4 4 6 8 8 9 12 25 25 25 21 19 20 19 25 21 20 18 19 20 21 23
12 11 12 11 9 8 7 6 6 4 2 2 3 4 4 4 3 3 5 6 8 9 11 22 25 26 24 23 20 17 17 24 22 20 17 20 21 20
11 11 11 9 7 7 6 6 4 2 2 2 4 3 3 3 2 3 4 4 6 9 11 13 24 26 23 22 20 17 14 14 20 25 22 21 20 17
11 10 8 6 6 6 5 3 2 1 1 2 3 2 3 2 3 4 3 4 6 8 10 12 20 25 23 22 19 15 13 13 14 13 16 25 26 25

GFSNE_sfc_30mbdewp_069.txt.gz
Dewpoint
57 56 55 54 54 52 51 49 48 44 43 44 42 40 40 40 38 38 39 39 38 38 39 40 42 42 43 43 44 44 42 41 39 38 37 37 38 38
56 54 54 54 52 51 50 49 48 47 44 43 42 39 38 36 39 39 38 36 37 38 38 39 39 40 41 42 42 42 43 42 41 38 38 38 38 43
55 54 53 53 50 48 48 46 45 45 43 41 41 40 40 40 39 39 39 39 38 37 37 37 38 38 39 40 40 41 41 41 41 40 39 38 38 39
53 52 52 49 48 46 46 44 44 43 42 40 40 39 39 39 39 38 36 34 35 34 35 36 36 36 37 37 38 38 38 39 39 39 39 39 38 37
53 50 48 47 45 44 44 43 42 41 41 39 39 38 36 36 35 34 34 32 30 29 29 30 32 34 35 34 35 34 35 36 37 37 38 38 38 37
50 48 46 45 44 44 43 42 41 40 39 37 36 34 34 33 33 30 25 23 19 17 18 21 25 28 31 31 31 30 31 31 32 34 36 37 38 37
46 45 45 44 44 43 41 40 39 38 36 35 33 32 31 26 22 20 18 16 17 18 19 19 18 18 19 20 21 23 25 28 31 32 33 36 37 37
42 41 41 40 39 39 38 37 37 35 33 32 30 26 21 18 17 18 18 15 11 20 19 17 17 18 19 20 21 26 28 29 30 32 35 36 36 34
39 37 34 33 31 28 25 24 22 21 23 22 20 17 16 17 20 19 17 19 17 16 16 15 17 17 17 17 22 26 28 29 30 32 33 37 36 36
35 33 31 28 25 21 20 20 20 21 21 20 20 19 20 21 22 21 21 19 16 14 14 13 13 15 18 19 22 24 27 28 30 31 33 35 34 35
29 28 27 25 25 21 19 18 19 20 19 18 18 18 19 20 21 18 14 11 13 8 10 14 13 12 14 17 18 23 27 28 28 29 32 34 35 31
26 25 24 23 23 21 19 17 15 16 14 11 12 15 15 15 16 13 12 12 11 9 12 13 9 13 14 13 17 20 25 26 29 31 34 33 30 23
22 20 22 25 25 23 20 19 18 15 15 12 11 13 13 12 12 12 12 13 13 11 11 15 14 15 16 16 16 19 22 27 32 32 27 25 24 22
17 18 22 25 22 21 20 19 17 15 15 13 12 10 10 10 11 9 9 10 12 12 13 15 16 16 17 17 16 18 22 27 29 29 30 23 22 22
18 21 24 23 20 19 18 17 16 15 13 12 11 9 8 8 8 8 8 9 9 10 10 13 16 17 18 17 18 19 24 23 26 26 24 23 22 21
22 22 22 20 18 17 17 16 14 13 11 11 10 9 8 9 9 7 8 8 7 8 10 12 15 17 18 19 20 21 25 25 22 23 23 25 23 24
21 20 18 17 16 15 14 13 12 11 10 10 10 8 6 6 7 7 7 7 6 6 5 8 12 15 17 20 23 24 25 25 22 23 21 21 22 24
20 17 16 16 14 14 14 12 11 10 9 9 8 6 5 5 6 5 6 6 5 5 4 6 10 13 16 23 28 27 24 24 22 23 22 20 19 24
17 17 16 16 14 12 11 10 9 9 8 8 7 5 5 4 5 4 4 4 4 4 3 4 8 12 14 15 22 28 26 25 26 26 22 21 20 20
16 15 14 13 13 12 11 10 9 9 8 7 5 4 4 4 4 4 4 4 4 3 2 3 6 10 13 13 15 26 29 29 26 23 21 22 23 23
15 14 14 13 12 10 10 9 8 7 6 5 4 4 4 4 4 3 3 3 3 3 3 2 5 8 13 18 17 21 26 29 28 24 22 20 17 17
13 12 12 11 10 9 8 8 6 5 4 3 3 3 4 4 3 3 3 3 3 3 3 3 5 8 13 14 16 24 25 24 25 24 23 21 18 15
10 9 9 8 7 6 5 4 3 3 2 1 1 1 2 2 2 3 4 3 3 3 3 4 5 7 11 14 16 23 25 23 22 23 24 25 23 21

GFSNE_sfc_30mbdewp_072.txt.gz
Dewpoint
54 54 54 55 56 55 54 53 50 46 45 48 46 44 43 41 41 41 42 39 38 37 38 38 39 41 42 42 42 42 41 41 41 42 41 41 40 39
53 54 54 56 56 56 55 53 52 50 47 47 46 43 42 40 38 41 42 38 36 36 37 38 38 39 40 40 41 41 41 41 40 40 40 41 40 39
53 55 55 57 55 54 54 53 51 50 47 44 43 41 41 41 40 42 41 40 40 38 37 37 37 37 37 37 38 38 38 38 37 37 37 37 37 38
53 56 56 55 54 53 52 50 48 49 46 43 41 41 41 42 42 41 39 37 36 36 34 34 34 34 34 34 35 36 36 36 35 34 32 32 32 34
56 55 54 54 52 49 48 47 46 45 43 43 42 42 41 39 37 38 37 35 32 28 27 26 26 28 31 32 31 32 34 33 31 32 32 32 33 33
54 55 54 54 52 48 46 45 44 43 42 42 41 38 37 37 36 32 29 28 23 14 14 17 19 20 24 27 29 27 27 29 29 28 29 31 32 33
53 52 52 50 49 47 45 44 43 42 40 40 36 35 35 33 31 26 22 17 16 17 16 19 17 16 18 22 21 24 26 26 25 27 28 30 31 33
49 47 46 46 45 44 43 42 42 39 38 36 35 33 32 28 23 20 16 14 12 13 20 17 17 15 16 17 18 21 23 26 27 27 30 31 32 33
45 42 40 38 37 35 33 32 31 31 33 34 32 28 24 21 18 18 16 17 16 16 16 15 17 16 16 13 18 22 24 26 26 28 29 30 32 35
40 38 35 32 30 29 27 25 23 21 21 19 21 20 19 18 19 18 19 19 18 15 13 12 13 13 16 14 16 18 21 24 27 29 29 31 32 33
34 33 32 30 30 29 27 25 23 21 20 19 20 19 19 20 20 16 15 12 14 11 10 10 13 12 9 12 15 18 25 26 28 29 29 30 31 34
30 30 30 30 30 27 25 23 20 16 12 11 14 15 15 17 16 13 9 10 11 11 9 11 10 7 10 12 14 17 20 22 25 29 32 32 34 35
26 27 28 28 28 25 21 20 18 15 13 11 9 10 11 12 12 12 11 11 12 11 11 12 13 12 12 12 13 15 19 23 25 29 30 30 31 27
26 27 28 27 26 23 21 19 17 16 16 14 12 10 9 10 10 10 9 9 9 9 9 11 12 12 12 13 12 14 18 21 24 27 31 31 28 22
28 28 27 25 22 21 19 18 17 18 17 15 13 10 8 7 6 9 10 8 8 9 8 9 11 12 13 14 14 16 18 21 24 27 28 29 24 23
28 26 24 21 21 20 19 18 16 15 14 14 13 10 10 10 10 10 10 9 10 10 10 9 10 13 15 14 15 18 20 22 24 26 25 26 26 25
25 22 20 20 19 17 16 15 15 14 13 13 12 11 11 10 10 10 9 9 9 8 7 6 7 9 12 13 16 17 20 23 25 27 24 25 26 26
23 23 23 22 22 19 18 18 15 13 10 10 12 12 11 10 9 9 8 8 8 7 6 6 6 8 9 11 17 20 21 25 26 25 25 24 23 25
23 22 21 21 20 17 15 13 13 14 12 12 12 11 11 10 8 7 7 7 6 6 5 5 5 5 7 8 11 21 26 28 29 30 26 24 22 22
21 20 18 17 15 13 13 12 11 12 11 10 10 10 9 8 7 6 5 6 6 5 3 3 3 4 6 11 13 15 17 20 29 28 26 24 23 23
16 15 15 14 13 12 13 12 11 10 9 8 8 8 8 7 5 5 5 4 5 4 3 3 3 5 5 8 13 15 18 23 24 30 26 25 21 18
14 13 12 11 11 10 10 10 9 7 6 6 5 5 5 5 5 4 4 4 3 3 3 3 3 4 5 6 11 13 15 23 30 30 24 23 22 20
11 10 10 9 8 7 5 5 5 5 4 3 3 3 3 3 3 3 4 4 3 3 4 4 4 4 4 6 11 12 14 19 27 25 24 23 22 22

GFSNE_sfc_30mbdewp_075.txt.gz
Dewpoint
54 54 53 54 54 54 54 54 52 48 47 49 49 50 51 50 46 45 45 42 40 40 40 40 41 42 42 42 42 42 41 41 42 42 42 42 42 41
54 55 55 55 54 55 56 56 54 51 49 49 50 49 48 46 44 44 44 40 38 37 37 38 38 39 40 41 40 40 40 40 40 39 39 39 39 39
53 53 53 54 54 55 57 56 55 53 50 50 48 49 45 44 40 42 44 43 42 38 37 38 37 36 36 37 37 37 36 36 35 34 32 31 31 30
52 52 52 54 54 55 56 55 53 53 51 49 45 46 44 43 42 42 43 42 41 40 39 37 35 33 31 31 30 32 34 33 32 32 29 28 28 27
52 52 52 53 55 56 54 53 52 52 50 49 44 44 43 43 43 41 40 40 39 38 34 30 26 23 26 28 29 29 30 30 30 30 31 31 29 28
52 53 53 55 55 55 53 52 51 48 47 46 44 43 42 41 39 38 37 37 34 30 21 13 17 23 24 24 25 27 28 29 29 30 30 27 29 30
53 55 55 55 54 54 52 51 49 47 45 44 42 41 40 38 38 36 33 30 27 23 19 19 19 21 22 27 27 28 31 31 28 26 26 27 29 31
53 53 53 52 52 51 51 50 48 46 44 43 40 39 38 37 35 32 26 23 19 19 19 19 20 20 20 21 19 17 19 22 25 26 27 28 29 30
54 53 49 47 47 43 40 39 38 39 41 40 38 37 36 33 27 25 21 20 18 19 18 19 21 20 21 18 18 20 22 22 22 25 27 28 30 30
52 48 43 40 39 37 35 33 31 30 30 30 33 31 28 26 22 20 20 20 20 19 18 18 19 19 20 19 19 17 19 25 27 27 27 29 30 31
38 38 37 34 33 34 32 31 31 29 29 29 28 25 22 20 19 18 18 17 20 16 16 16 15 17 19 18 17 20 20 19 23 26 28 30 32 31
32 32 32 32 32 31 30 29 26 22 16 12 11 10 14 16 11 14 12 12 13 14 15 15 14 13 12 15 17 19 21 21 21 23 27 31 33 34
29 28 29 30 30 30 30 30 27 25 21 23 19 15 13 15 15 15 13 13 14 15 16 14 15 15 15 14 14 16 18 21 26 27 28 30 27 30
27 27 29 29 28 28 26 26 24 26 25 17 14 11 11 12 12 12 12 12 12 10 11 13 13 13 13 13 13 13 16 19 22 25 28 31 30 29
27 27 27 26 24 24 24 25 26 26 23 21 17 14 14 12 10 9 11 12 11 12 11 12 13 12 13 14 14 14 15 17 20 23 27 29 32 27
26 25 26 26 24 22 23 24 22 20 19 20 20 17 15 15 13 13 14 15 14 14 14 14 14 14 14 14 14 15 16 16 19 22 26 32 30 29
25 25 24 23 23 24 22 22 22 20 19 18 18 16 14 14 15 15 14 14 14 13 12 11 11 11 12 11 13 14 15 16 18 22 25 28 30 29
26 25 25 26 25 24 23 20 18 15 14 13 14 14 13 13 13 13 12 12 13 12 11 9 9 9 10 10 12 13 15 19 25 26 26 28 28 28
26 26 25 24 22 21 20 16 16 15 12 13 14 14 13 12 11 11 10 11 11 10 9 8 7 6 6 8 10 13 16 17 17 19 22 31 27 25
22 21 20 18 16 15 15 14 15 15 14 13 11 11 11 10 9 8 8 8 8 7 5 3 3 6 10 12 10 10 9 13 16 19 21 30 29 25
19 19 20 17 16 15 15 14 13 13 11 12 11 10 11 8 7 6 6 8 8 5 5 4 4 6 7 8 9 10 12 14 16 19 23 23 28 25
18 16 15 14 14 12 12 11 9 8 7 6 6 6 6 7 7 6 6 5 5 5 5 4 4 5 6 7 7 8 10 13 15 17 25 26 28 25
14 12 12 10 8 7 6 7 6 6 5 4 4 4 6 4 4 5 5 5 5 4 3 5 6 8 7 6 8 9 10 13 14 19 22 28 24 23

GFSNE_sfc_30mbdewp_078.txt.gz
Dewpoint
54 54 53 54 53 53 53 53 51 49 49 50 51 53 53 53 52 51 48 45 43 42 42 42 43 44 44 43 43 43 42 42 42 42 42 42 42 42
53 54 54 53 53 54 54 54 54 52 49 50 51 51 52 52 50 47 46 45 42 41 40 41 41 41 41 41 41 42 42 41 40 40 39 39 39 38
52 52 52 53 53 55 55 55 54 54 52 51 51 51 49 49 46 45 45 43 41 38 38 38 38 38 39 38 38 38 38 37 36 35 34 32 31 29
51 52 52 53 55 55 55 55 55 55 53 51 51 49 49 49 45 43 45 45 44 41 39 38 38 37 36 35 34 33 31 33 32 30 28 27 27 28
51 52 52 53 53 54 54 54 56 54 53 52 51 48 48 46 44 43 43 44 42 41 41 39 38 36 34 28 26 28 29 30 29 30 30 29 30 29
52 52 52 52 52 53 54 55 54 53 53 52 51 47 45 45 45 43 42 41 40 39 39 37 35 33 24 22 24 26 27 27 29 30 30 30 30 29
52 52 53 52 52 53 54 54 54 52 51 50 48 44 43 41 42 42 41 40 39 38 30 24 22 21 22 27 26 27 29 32 32 31 29 29 29 29
52 52 53 53 53 54 53 53 53 51 49 49 47 44 43 42 41 39 37 36 30 30 25 22 22 23 23 23 21 24 25 26 28 28 26 27 29 29
52 52 52 52 52 52 43 43 40 41 39 47 45 40 38 38 36 33 31 31 30 29 25 21 25 22 23 21 21 22 21 22 23 25 26 26 27 29
53 52 52 49 46 44 37 34 33 33 34 34 33 32 33 34 34 33 32 32 31 28 24 19 20 20 24 23 21 22 21 23 21 21 23 26 28 29
42 43 43 40 37 36 35 32 28 28 31 32 32 31 30 30 31 32 29 26 23 22 22 20 19 20 21 21 18 17 22 21 23 25 24 26 28 30
33 33 34 34 34 34 33 30 27 25 24 23 22 24 22 19 15 23 19 16 17 15 17 16 17 16 16 18 20 18 19 22 20 19 21 27 30 32
30 30 31 32 32 31 29 26 24 27 28 27 26 26 28 26 23 22 21 18 18 19 20 15 16 16 16 16 16 18 17 17 20 25 23 24 28 30
28 29 30 30 30 29 28 28 28 27 26 25 23 21 20 18 17 15 14 14 15 14 14 14 15 14 15 14 13 15 16 18 20 21 22 25 28 31
28 29 29 27 27 27 28 28 28 27 26 25 23 24 19 15 14 14 15 15 17 18 16 18 17 16 15 14 14 15 16 16 18 19 22 26 28 31
26 26 24 24 25 26 25 24 23 24 24 23 23 23 22 18 16 17 17 18 17 16 17 17 17 17 16 15 14 14 15 15 16 17 19 21 23 28
25 24 23 24 24 23 23 24 24 24 22 22 21 20 18 17 16 17 17 16 15 15 14 15 16 15 15 14 13 12 13 13 15 17 22 23 24 26
26 25 25 24 23 23 22 22 21 19 19 17 17 16 16 16 15 14 14 14 14 14 14 14 14 13 12 11 10 10 13 17 18 16 16 17 18 21
25 24 23 22 21 21 20 20 17 16 17 16 16 15 14 13 13 12 12 12 12 11 11 9 7 7 6 6 12 11 10 9 10 10 13 17 19 21
22 21 20 20 20 19 19 18 16 16 14 11 12 12 13 12 10 9 9 9 9 8 6 6 7 9 10 8 8 9 9 9 11 13 15 18 18 22
19 18 19 18 18 17 16 15 14 13 12 12 12 10 9 9 8 8 7 7 7 7 6 5 6 7 7 7 6 6 9 9 9 11 18 16 14 17
17 16 16 15 14 12 13 12 10 10 9 8 7 6 8 7 6 5 6 6 7 7 6 6 6 6 7 7 6 6 7 9 10 11 15 17 19 16
14 15 12 11 10 9 9 9 8 7 7 7 7 7 5 4 5 5 6 6 6 6 5 5 6 5 4 4 5 5 7 8 9 11 13 17 23 26

GFSNE_sfc_30mbdewp_081.txt.gz
Dewpoint
53 52 52 53 53 53 53 52 49 47 46 50 51 52 51 51 51 51 50 49 48 47 47 49 50 50 48 47 46 46 46 45 44 43 43 43 43 43
53 53 52 52 53 54 53 53 53 51 48 49 50 52 53 53 52 52 51 51 48 47 46 47 46 45 44 44 44 43 43 43 43 42 42 41 41 40
52 53 53 53 53 53 54 53 53 53 51 51 51 51 51 52 53 52 51 49 46 45 43 42 42 42 43 42 41 41 41 41 40 39 38 37 35 32
51 52 53 53 53 53 54 53 53 53 52 51 52 50 50 50 50 48 48 46 45 43 42 41 41 40 39 39 39 38 37 36 34 33 31 29 27 27
50 51 51 51 51 51 52 53 53 53 53 53 51 51 51 48 48 46 47 46 45 44 42 41 41 40 39 38 36 34 30 29 30 30 29 29 28 28
50 51 51 52 51 51 52 53 54 54 54 53 53 52 49 47 48 47 44 45 45 44 43 42 41 40 39 36 28 24 27 28 29 30 30 30 29 29
50 51 52 52 52 52 53 53 53 54 54 53 51 51 45 43 45 46 45 44 42 42 41 40 39 38 36 32 26 28 28 29 31 32 32 31 27 28
50 50 51 51 51 50 50 51 53 53 52 51 51 50 48 46 46 45 42 38 37 38 35 33 31 29 30 28 28 27 27 29 33 33 30 28 30 30
51 51 51 52 51 51 47 44 41 42 44 50 51 50 46 43 40 37 35 34 32 34 33 32 33 32 29 24 23 22 26 23 25 27 27 28 27 27
52 52 52 50 50 49 43 38 34 34 35 38 40 37 36 37 36 35 34 32 32 33 33 30 29 26 26 28 26 24 23 23 25 25 25 26 27 27
48 48 51 49 46 43 41 35 31 30 33 33 33 33 33 34 34 33 31 30 28 29 30 29 26 24 23 23 23 22 20 20 24 26 25 24 22 28
38 38 40 43 39 38 37 32 29 28 28 28 27 28 30 30 31 32 31 28 27 23 20 21 19 18 15 22 20 19 20 20 20 20 21 25 28 25
36 33 33 35 34 33 32 31 28 27 27 27 27 27 27 27 27 27 27 26 24 24 18 15 16 15 15 16 18 16 16 17 19 20 22 21 21 23
30 30 31 31 30 30 29 29 29 28 27 26 26 25 24 22 20 19 18 17 16 16 16 16 16 13 13 14 13 16 15 17 18 19 19 21 22 24
29 30 30 29 28 28 28 28 28 27 26 24 23 22 23 24 24 23 23 20 19 18 17 17 17 17 17 15 15 15 15 15 17 18 20 18 19 20
25 25 25 25 25 25 25 25 25 25 24 22 22 23 24 23 21 20 19 18 17 17 17 17 18 19 18 17 16 16 16 14 15 16 17 19 20 22
25 25 23 23 22 22 23 23 22 22 21 21 21 20 20 20 18 17 16 15 15 14 14 16 16 16 15 14 13 13 13 13 17 19 17 16 15 17
25 23 22 22 21 20 19 18 19 20 20 20 19 18 17 15 14 14 14 13 13 13 12 11 9 7 6 7 7 11 13 11 11 11 11 11 12 14
21 21 20 20 19 19 18 18 17 18 18 16 14 14 14 14 12 11 11 10 9 8 7 7 8 9 9 6 6 7 8 8 8 9 11 13 14 15
20 19 18 18 18 17 17 16 16 14 14 15 14 11 10 10 10 9 8 7 7 7 6 6 6 6 6 6 7 8 7 9 11 11 12 13 15 16
16 16 16 16 16 16 15 14 13 11 10 8 8 8 7 6 6 6 5 6 6 6 6 5 5 6 7 7 5 4 5 5 6 8 9 10 11 12
14 14 14 13 13 12 11 11 10 9 8 8 7 5 4 5 5 5 6 6 6 7 6 5 6 5 4 3 2 3 4 6 7 8 9 11 14 12
11 11 10 10 9 9 8 7 7 7 7 5 4 3 2 3 5 5 5 5 6 6 6 4 3 4 4 4 4 4 4 5 7 9 13 15 14 18